一网星座-0621星 (ONEWEB-0621)

导读 | 星芒AI

ONEWE-0621 是 OneWeb 卫星通信网络计划中的一颗低轨通信卫星,旨在为全球提供高速互联网服务。该卫星由阿丽亚娜集团制造,搭载先进通信载荷,支持宽带数据传输。作为 OneWeb 低轨星座的一部分,它运行在约 1200 公里的轨道高度,与其他卫星协同工作,实现全球覆盖。该卫星的发射有助于增强偏远和农村地区的网络连接能力,推动数字包容性发展。

基本信息
目录编号:
55162
目录名称:
ONEWEB-0621
国际标识:
2023-004Y
轨道中心:
EARTH
卫星名称:
一网星座-0621星
卫星全名:
一网星座-0621星 (ONEWEB-0621)
卫星状态:
在轨 (已飞行1024 天)
发射日期:
2023-01-10 UTC
国别 :
英国 (GB)
星等 :
--
轨道信息
数据来源 国际轨道数据
星历时间: 2025-10-30T05:38:26+0800
10小时前
查看轨道信息
半长轴: 7595.825km
偏心率: 0.0001353
轨道倾角: 87.885°
近地点辐角 97.478°
升交点赤经 66.911°
平近点角 262.650°
近地点: 1216.662km
远地点: 1218.718km
周期: 109.805分钟
每日圈数: 13.114156
详细信息
平衡模式:
三轴稳定
覆盖范围:
全球
运营商:
一网卫星公司
运营商所在国:
英国
制造商(研发单位):
一网卫星公司
制造商所在国:
英国
使用方式:
暂无
卫星简介
OneWeb卫星网络由648颗重约125公斤的微型卫星组成,运行在1200公里的轨道上。 每颗卫星都能够提供至少每秒8千兆位的吞吐量,以使用其高吞吐量的Ku频段有效载荷为家庭和移动平台提供互联网接入。该卫星仍在工作。
2D轨道图
3D轨道图
轨道高度分析图
轨道倾角分析图
轨道综合分析图
查看轨道综合分析图